Moby Aki — IBVV — position and weather

sailwx.info

Track history (hours):
 
Tides and Currents Weather Stations Pressure Air Temp Water Temp Dewpoint Dewpoint Depression Visibility Wind Speed Wind Dir Waves Ship Positions

Moby Aki

Last reported at 2014-Oct-21 17:04 UTC. Time now 2014-Oct-21 18:28 UTC.
Position N 40°55' E 009°31'.

Length 175 m; draft 6.9 m.

Type: Passenger vessel. MMSI: 247132400.

Date/timePositionNaut miles runAvg speedWind from/ knotsBaromVisibWave heightAir tempDewpointWater temp
2014-Oct-21 17:04N 40°55' E 009°31'0 0.0
2014-Oct-21 16:28N 40°55' E 009°31'0 0.0
2014-Oct-21 14:31N 40°55' E 009°31'0 0.0
2014-Oct-21 13:28N 40°55' E 009°31'0 0.0
2014-Oct-21 12:09N 40°55' E 009°31'0 0.0
2014-Oct-21 11:33N 40°55' E 009°31'0 0.0
2014-Oct-21 09:30N 40°55' E 009°31'0 0.0
2014-Oct-21 07:17N 40°55' E 009°31'0 0.0
2014-Oct-21 06:32N 40°55' E 009°31'0 0.0
2014-Oct-21 05:33N 40°55' E 009°31'12016.9
2014-Oct-20 22:28N 42°53' E 010°02'1819.3
2014-Oct-20 21:33N 43°10' E 010°07'1919.3
2014-Oct-20 20:33N 43°29' E 010°13'6 5.7
2014-Oct-20 19:32N 43°33' E 010°18'0 0.0
2014-Oct-20 18:32N 43°33' E 010°18'0 0.0
2014-Oct-20 17:31N 43°33' E 010°18'0 0.0
2014-Oct-20 16:31N 43°33' E 010°18'0 0.0
2014-Oct-20 15:31N 43°33' E 010°18'0 0.0
2014-Oct-20 14:31N 43°33' E 010°18'0 0.0
2014-Oct-20 13:31N 43°33' E 010°18'0 0.0
2014-Oct-20 12:33N 43°33' E 010°18'0 0.0
2014-Oct-20 11:33N 43°33' E 010°18'0 0.0
2014-Oct-20 10:30N 43°33' E 010°18'0 0.0
2014-Oct-20 09:33N 43°33' E 010°18'0 0.0
2014-Oct-20 08:33N 43°33' E 010°18'0 0.0
2014-Oct-20 07:30N 43°33' E 010°18'0 0.0
2014-Oct-20 06:33N 43°33' E 010°18'0 0.0
2014-Oct-20 05:33N 43°33' E 010°18'9 8.7
2014-Oct-20 04:34N 43°26' E 010°11'2019.7
2014-Oct-20 03:33N 43°09' E 009°58'5819.3
2014-Oct-20 00:33N 42°10' E 009°54'2319.2
2014-Oct-19 23:20N 41°47' E 009°50'3418.9
2014-Oct-19 21:33N 41°14' E 009°44'61 2.9
2014-Oct-19 00:33N 42°15' E 009°55'2119.1
2014-Oct-18 23:27N 42°36' E 009°58'1718.8
2014-Oct-18 22:34N 42°52' E 010°01'1918.9
2014-Oct-18 21:33N 43°11' E 010°07'1919.1
2014-Oct-18 20:33N 43°29' E 010°13'5 5.3
2014-Oct-18 19:32N 43°33' E 010°18'0 0.0
2014-Oct-18 18:32N 43°33' E 010°18'0 0.0
2014-Oct-18 17:32N 43°33' E 010°18'0 0.0
2014-Oct-18 16:26N 43°33' E 010°18'0 0.0
2014-Oct-18 15:32N 43°33' E 010°18'0 0.0
2014-Oct-18 14:32N 43°33' E 010°18'0 0.0
2014-Oct-18 13:32N 43°33' E 010°18'0 0.0
2014-Oct-18 12:32N 43°33' E 010°18'0 0.0
2014-Oct-18 11:32N 43°33' E 010°18'0 0.0
2014-Oct-18 10:31N 43°33' E 010°18'0 0.0
2014-Oct-18 09:31N 43°33' E 010°18'0 0.0
2014-Oct-18 08:31N 43°33' E 010°18'0 0.0
2014-Oct-18 07:29N 43°33' E 010°18'0 0.0
2014-Oct-18 06:33N 43°33' E 010°18'0 0.0
2014-Oct-18 05:34N 43°33' E 010°18'8 8.1
2014-Oct-18 04:34N 43°27' E 010°10'2020.2
2014-Oct-18 03:34N 43°09' E 009°58'2219.3
2014-Oct-18 02:24N 42°47' E 009°57'4419.2
2014-Oct-18 00:05N 42°03' E 009°51'69 9.1
2014-Oct-17 16:33N 40°55' E 009°31'0 0.0
2014-Oct-17 15:33N 40°55' E 009°31'0 0.0
2014-Oct-17 14:33N 40°55' E 009°31'0 0.0
2014-Oct-17 13:34N 40°55' E 009°31'0 0.0
2014-Oct-17 12:33N 40°55' E 009°31'0 0.0
2014-Oct-17 11:33N 40°55' E 009°31'0 0.0
2014-Oct-17 10:33N 40°55' E 009°31'0 0.0
2014-Oct-17 09:33N 40°55' E 009°31'0 0.0
2014-Oct-17 08:33N 40°55' E 009°31'0 0.0
2014-Oct-17 07:32N 40°55' E 009°31'0 0.0
2014-Oct-17 06:33N 40°55' E 009°31'0 0.0
2014-Oct-17 05:33N 40°55' E 009°31'8816.5
2014-Oct-17 00:16N 42°21' E 009°53'3719.1
2014-Oct-16 22:20N 42°58' E 010°02'1418.5
2014-Oct-16 21:33N 43°11' E 010°07'1818.5
2014-Oct-16 20:33N 43°29' E 010°13'5 5.3
2014-Oct-16 19:32N 43°33' E 010°18'0 0.0
2014-Oct-16 18:32N 43°33' E 010°18'0 0.0
2014-Oct-16 17:29N 43°33' E 010°18'0 0.0
2014-Oct-16 16:32N 43°33' E 010°18'0 0.0
2014-Oct-16 15:32N 43°33' E 010°18'0 0.0
2014-Oct-16 14:31N 43°33' E 010°18'0 0.0
2014-Oct-16 13:31N 43°33' E 010°18'0 0.0
2014-Oct-16 12:31N 43°33' E 010°18'0 0.0
2014-Oct-16 11:31N 43°33' E 010°18'0 0.0
2014-Oct-16 10:33N 43°33' E 010°18'0 0.0
2014-Oct-16 09:33N 43°33' E 010°18'0 0.0
2014-Oct-16 08:34N 43°33' E 010°18'0 0.0
2014-Oct-16 07:33N 43°33' E 010°18'0 0.0
2014-Oct-16 06:33N 43°33' E 010°18'0 0.0
2014-Oct-16 05:33N 43°33' E 010°18'8 8.2
2014-Oct-16 04:34N 43°27' E 010°11'2020.4
2014-Oct-16 03:33N 43°08' E 009°59'13318.9
2014-Oct-15 20:32N 40°56' E 009°37'5 4.6
2014-Oct-15 19:31N 40°55' E 009°31'0 0.0
2014-Oct-15 18:31N 40°55' E 009°31'0 0.0
2014-Oct-15 16:31N 40°55' E 009°31'0 0.0
2014-Oct-15 15:33N 40°55' E 009°31'125 7.2
2014-Oct-14 22:16N 42°58' E 010°03'1318.9
2014-Oct-14 21:33N 43°11' E 010°07'1919.1
2014-Oct-14 20:34N 43°29' E 010°12'6 5.5
2014-Oct-14 19:33N 43°33' E 010°18'0 0.0
2014-Oct-14 18:33N 43°33' E 010°18'0 0.0
2014-Oct-14 17:33N 43°33' E 010°18'0 0.0
2014-Oct-14 16:33N 43°33' E 010°18'0 0.0
2014-Oct-14 15:33N 43°33' E 010°18'0 0.0
2014-Oct-14 14:33N 43°33' E 010°18'0 0.0
2014-Oct-14 13:33N 43°33' E 010°18'0 0.0
2014-Oct-14 12:33N 43°33' E 010°18'0 0.0
2014-Oct-14 11:33N 43°33' E 010°18'0 0.0
2014-Oct-14 10:33N 43°33' E 010°18'0 0.0
2014-Oct-14 09:33N 43°33' E 010°18'0 0.0
2014-Oct-14 08:33N 43°33' E 010°18'0 0.0
2014-Oct-14 07:33N 43°33' E 010°18'0 0.0
2014-Oct-14 06:33N 43°33' E 010°18'0 0.0
2014-Oct-14 05:33N 43°33' E 010°18'8 7.9
2014-Oct-14 04:34N 43°27' E 010°12'2121.1
2014-Oct-14 03:34N 43°08' E 009°59'13319.0
2014-Oct-13 20:33N 40°56' E 009°36'4 2.9
2014-Oct-13 19:21N 40°55' E 009°31'0 0.0
2014-Oct-13 18:33N 40°55' E 009°31'0 0.0
2014-Oct-13 16:33N 40°55' E 009°31'0 0.0
2014-Oct-13 14:33N 40°55' E 009°31'0 0.0
2014-Oct-13 13:33N 40°55' E 009°31'0 0.0
2014-Oct-13 12:14N 40°55' E 009°31'0 0.0
2014-Oct-13 11:32N 40°55' E 009°31'0 0.0
2014-Oct-13 09:32N 40°55' E 009°31'0 0.0
2014-Oct-13 08:32N 40°55' E 009°31'0 0.0
2014-Oct-13 07:19N 40°55' E 009°31'0 0.0
2014-Oct-13 06:33N 40°55' E 009°31'0 0.0
2014-Oct-13 05:33N 40°55' E 009°31'7 7.1
2014-Oct-13 04:34N 40°57' E 009°40'2 0.1
2014-Oct-11 20:33N 40°56' E 009°38'5 2.5
2014-Oct-11 18:32N 40°55' E 009°31'  
Track history (hours):
 
Tides and Currents Weather Stations Pressure Air Temp Water Temp Dewpoint Dewpoint Depression Visibility Wind Speed Wind Dir Waves Ship Positions

Moby Aki

Last reported at 2014-Oct-21 17:04 UTC. Time now 2014-Oct-21 18:28 UTC.
Position N 40°55' E 009°31'.

Length 175 m; draft 6.9 m.

Type: Passenger vessel. MMSI: 247132400.

Date/timePositionNaut miles runAvg speedWind from/ knotsBaromVisibWave heightAir tempDewpointWater temp
2014-Oct-21 17:04N 40°55' E 009°31'0 0.0
2014-Oct-21 16:28N 40°55' E 009°31'0 0.0
2014-Oct-21 14:31N 40°55' E 009°31'0 0.0
2014-Oct-21 13:28N 40°55' E 009°31'0 0.0
2014-Oct-21 12:09N 40°55' E 009°31'0 0.0
2014-Oct-21 11:33N 40°55' E 009°31'0 0.0
2014-Oct-21 09:30N 40°55' E 009°31'0 0.0
2014-Oct-21 07:17N 40°55' E 009°31'0 0.0
2014-Oct-21 06:32N 40°55' E 009°31'0 0.0
2014-Oct-21 05:33N 40°55' E 009°31'12016.9
2014-Oct-20 22:28N 42°53' E 010°02'1819.3
2014-Oct-20 21:33N 43°10' E 010°07'1919.3
2014-Oct-20 20:33N 43°29' E 010°13'6 5.7
2014-Oct-20 19:32N 43°33' E 010°18'0 0.0
2014-Oct-20 18:32N 43°33' E 010°18'0 0.0
2014-Oct-20 17:31N 43°33' E 010°18'0 0.0
2014-Oct-20 16:31N 43°33' E 010°18'0 0.0
2014-Oct-20 15:31N 43°33' E 010°18'0 0.0
2014-Oct-20 14:31N 43°33' E 010°18'0 0.0
2014-Oct-20 13:31N 43°33' E 010°18'0 0.0
2014-Oct-20 12:33N 43°33' E 010°18'0 0.0
2014-Oct-20 11:33N 43°33' E 010°18'0 0.0
2014-Oct-20 10:30N 43°33' E 010°18'0 0.0
2014-Oct-20 09:33N 43°33' E 010°18'0 0.0
2014-Oct-20 08:33N 43°33' E 010°18'0 0.0
2014-Oct-20 07:30N 43°33' E 010°18'0 0.0
2014-Oct-20 06:33N 43°33' E 010°18'0 0.0
2014-Oct-20 05:33N 43°33' E 010°18'9 8.7
2014-Oct-20 04:34N 43°26' E 010°11'2019.7
2014-Oct-20 03:33N 43°09' E 009°58'5819.3
2014-Oct-20 00:33N 42°10' E 009°54'2319.2
2014-Oct-19 23:20N 41°47' E 009°50'3418.9
2014-Oct-19 21:33N 41°14' E 009°44'61 2.9
2014-Oct-19 00:33N 42°15' E 009°55'2119.1
2014-Oct-18 23:27N 42°36' E 009°58'1718.8
2014-Oct-18 22:34N 42°52' E 010°01'1918.9
2014-Oct-18 21:33N 43°11' E 010°07'1919.1
2014-Oct-18 20:33N 43°29' E 010°13'5 5.3
2014-Oct-18 19:32N 43°33' E 010°18'0 0.0
2014-Oct-18 18:32N 43°33' E 010°18'0 0.0
2014-Oct-18 17:32N 43°33' E 010°18'0 0.0
2014-Oct-18 16:26N 43°33' E 010°18'0 0.0
2014-Oct-18 15:32N 43°33' E 010°18'0 0.0
2014-Oct-18 14:32N 43°33' E 010°18'0 0.0
2014-Oct-18 13:32N 43°33' E 010°18'0 0.0
2014-Oct-18 12:32N 43°33' E 010°18'0 0.0
2014-Oct-18 11:32N 43°33' E 010°18'0 0.0
2014-Oct-18 10:31N 43°33' E 010°18'0 0.0
2014-Oct-18 09:31N 43°33' E 010°18'0 0.0
2014-Oct-18 08:31N 43°33' E 010°18'0 0.0
2014-Oct-18 07:29N 43°33' E 010°18'0 0.0
2014-Oct-18 06:33N 43°33' E 010°18'0 0.0
2014-Oct-18 05:34N 43°33' E 010°18'8 8.1
2014-Oct-18 04:34N 43°27' E 010°10'2020.2
2014-Oct-18 03:34N 43°09' E 009°58'2219.3
2014-Oct-18 02:24N 42°47' E 009°57'4419.2
2014-Oct-18 00:05N 42°03' E 009°51'69 9.1
2014-Oct-17 16:33N 40°55' E 009°31'0 0.0
2014-Oct-17 15:33N 40°55' E 009°31'0 0.0
2014-Oct-17 14:33N 40°55' E 009°31'0 0.0
2014-Oct-17 13:34N 40°55' E 009°31'0 0.0
2014-Oct-17 12:33N 40°55' E 009°31'0 0.0
2014-Oct-17 11:33N 40°55' E 009°31'0 0.0
2014-Oct-17 10:33N 40°55' E 009°31'0 0.0
2014-Oct-17 09:33N 40°55' E 009°31'0 0.0
2014-Oct-17 08:33N 40°55' E 009°31'0 0.0
2014-Oct-17 07:32N 40°55' E 009°31'0 0.0
2014-Oct-17 06:33N 40°55' E 009°31'0 0.0
2014-Oct-17 05:33N 40°55' E 009°31'8816.5
2014-Oct-17 00:16N 42°21' E 009°53'3719.1
2014-Oct-16 22:20N 42°58' E 010°02'1418.5
2014-Oct-16 21:33N 43°11' E 010°07'1818.5
2014-Oct-16 20:33N 43°29' E 010°13'5 5.3
2014-Oct-16 19:32N 43°33' E 010°18'0 0.0
2014-Oct-16 18:32N 43°33' E 010°18'0 0.0
2014-Oct-16 17:29N 43°33' E 010°18'0 0.0
2014-Oct-16 16:32N 43°33' E 010°18'0 0.0
2014-Oct-16 15:32N 43°33' E 010°18'0 0.0
2014-Oct-16 14:31N 43°33' E 010°18'0 0.0
2014-Oct-16 13:31N 43°33' E 010°18'0 0.0
2014-Oct-16 12:31N 43°33' E 010°18'0 0.0
2014-Oct-16 11:31N 43°33' E 010°18'0 0.0
2014-Oct-16 10:33N 43°33' E 010°18'0 0.0
2014-Oct-16 09:33N 43°33' E 010°18'0 0.0
2014-Oct-16 08:34N 43°33' E 010°18'0 0.0
2014-Oct-16 07:33N 43°33' E 010°18'0 0.0
2014-Oct-16 06:33N 43°33' E 010°18'0 0.0
2014-Oct-16 05:33N 43°33' E 010°18'8 8.2
2014-Oct-16 04:34N 43°27' E 010°11'2020.4
2014-Oct-16 03:33N 43°08' E 009°59'13318.9
2014-Oct-15 20:32N 40°56' E 009°37'5 4.6
2014-Oct-15 19:31N 40°55' E 009°31'0 0.0
2014-Oct-15 18:31N 40°55' E 009°31'0 0.0
2014-Oct-15 16:31N 40°55' E 009°31'0 0.0
2014-Oct-15 15:33N 40°55' E 009°31'125 7.2
2014-Oct-14 22:16N 42°58' E 010°03'1318.9
2014-Oct-14 21:33N 43°11' E 010°07'1919.1
2014-Oct-14 20:34N 43°29' E 010°12'6 5.5
2014-Oct-14 19:33N 43°33' E 010°18'0 0.0
2014-Oct-14 18:33N 43°33' E 010°18'0 0.0
2014-Oct-14 17:33N 43°33' E 010°18'0 0.0
2014-Oct-14 16:33N 43°33' E 010°18'0 0.0
2014-Oct-14 15:33N 43°33' E 010°18'0 0.0
2014-Oct-14 14:33N 43°33' E 010°18'0 0.0
2014-Oct-14 13:33N 43°33' E 010°18'0 0.0
2014-Oct-14 12:33N 43°33' E 010°18'0 0.0
2014-Oct-14 11:33N 43°33' E 010°18'0 0.0
2014-Oct-14 10:33N 43°33' E 010°18'0 0.0
2014-Oct-14 09:33N 43°33' E 010°18'0 0.0
2014-Oct-14 08:33N 43°33' E 010°18'0 0.0
2014-Oct-14 07:33N 43°33' E 010°18'0 0.0
2014-Oct-14 06:33N 43°33' E 010°18'0 0.0
2014-Oct-14 05:33N 43°33' E 010°18'8 7.9
2014-Oct-14 04:34N 43°27' E 010°12'2121.1
2014-Oct-14 03:34N 43°08' E 009°59'13319.0
2014-Oct-13 20:33N 40°56' E 009°36'4 2.9
2014-Oct-13 19:21N 40°55' E 009°31'0 0.0
2014-Oct-13 18:33N 40°55' E 009°31'0 0.0
2014-Oct-13 16:33N 40°55' E 009°31'0 0.0
2014-Oct-13 14:33N 40°55' E 009°31'0 0.0
2014-Oct-13 13:33N 40°55' E 009°31'0 0.0
2014-Oct-13 12:14N 40°55' E 009°31'0 0.0
2014-Oct-13 11:32N 40°55' E 009°31'0 0.0
2014-Oct-13 09:32N 40°55' E 009°31'0 0.0
2014-Oct-13 08:32N 40°55' E 009°31'0 0.0
2014-Oct-13 07:19N 40°55' E 009°31'0 0.0
2014-Oct-13 06:33N 40°55' E 009°31'0 0.0
2014-Oct-13 05:33N 40°55' E 009°31'7 7.1
2014-Oct-13 04:34N 40°57' E 009°40'2 0.1
2014-Oct-11 20:33N 40°56' E 009°38'5 2.5
2014-Oct-11 18:32N 40°55' E 009°31'  

Dump ship's entire track history